TimePST,TemperatureF,Dew PointF,Humidity,Sea Level PressureIn,VisibilityMPH,Wind Direction,Wind SpeedMPH,Gust SpeedMPH,PrecipitationIn,Events,Conditions,WindDirDegrees,DateUTC
12:15 AM,48.2,42.8,82,29.57,10.0,SE,21.9,29.9,N/A,,Overcast,130,2012-11-19 08:15:00
12:35 AM,48.2,42.8,82,29.58,10.0,SE,19.6,27.6,N/A,,Overcast,140,2012-11-19 08:35:00
12:55 AM,48.2,42.8,82,29.58,10.0,SE,18.4,24.2,N/A,,Overcast,140,2012-11-19 08:55:00
1:15 AM,48.2,42.8,82,29.57,10.0,SE,18.4,-,N/A,,Overcast,130,2012-11-19 09:15:00
1:35 AM,48.2,42.8,82,29.57,10.0,ESE,12.7,20.7,N/A,,Overcast,120,2012-11-19 09:35:00
1:55 AM,48.2,42.8,82,29.57,10.0,SE,16.1,-,N/A,,Overcast,130,2012-11-19 09:55:00
2:15 AM,48.2,42.8,82,29.57,10.0,ESE,12.7,20.7,N/A,,Overcast,110,2012-11-19 10:15:00
2:35 AM,48.2,42.8,82,29.57,10.0,ESE,11.5,17.3,N/A,,Overcast,110,2012-11-19 10:35:00
2:55 AM,51.8,42.8,71,29.55,10.0,SE,12.7,-,N/A,,Overcast,130,2012-11-19 10:55:00
3:15 AM,51.8,42.8,71,29.56,10.0,SE,16.1,20.7,N/A,,Overcast,130,2012-11-19 11:15:00
3:35 AM,50.0,44.6,82,29.55,10.0,SE,12.7,19.6,N/A,,Overcast,130,2012-11-19 11:35:00
3:55 AM,50.0,42.8,76,29.53,10.0,SE,9.2,-,N/A,,Overcast,130,2012-11-19 11:55:00
4:15 AM,51.8,42.8,71,29.54,10.0,SSE,4.6,-,N/A,,Overcast,160,2012-11-19 12:15:00
4:35 AM,51.8,42.8,71,29.54,10.0,SSE,10.4,-,N/A,,Overcast,160,2012-11-19 12:35:00
4:55 AM,51.8,42.8,71,29.54,10.0,SSE,23.0,28.8,N/A,,Overcast,150,2012-11-19 12:55:00
5:35 AM,48.2,44.6,87,29.54,10.0,SE,20.7,26.5,N/A,,Mostly Cloudy,130,2012-11-19 13:35:00
5:55 AM,48.2,44.6,87,29.55,10.0,SE,16.1,-,N/A,,Overcast,140,2012-11-19 13:55:00
6:15 AM,48.2,44.6,87,29.54,10.0,SE,10.4,-,N/A,,Overcast,130,2012-11-19 14:15:00
6:35 AM,48.2,44.6,87,29.54,10.0,SE,12.7,-,0.01,,Overcast,130,2012-11-19 14:35:00
6:55 AM,48.2,44.6,87,29.53,10.0,ESE,11.5,-,0.02,,Overcast,110,2012-11-19 14:55:00
7:15 AM,48.2,44.6,87,29.52,10.0,ESE,13.8,-,0.01,,Overcast,120,2012-11-19 15:15:00
7:35 AM,48.2,44.6,87,29.52,10.0,SE,6.9,-,0.02,,Overcast,130,2012-11-19 15:35:00
7:55 AM,48.2,44.6,87,29.51,8.0,East,8.1,-,0.05,,Overcast,80,2012-11-19 15:55:00
8:15 AM,46.4,44.6,93,29.50,10.0,NW,5.8,-,0.06,,Overcast,320,2012-11-19 16:15:00
8:35 AM,46.4,44.6,93,29.50,10.0,NNE,5.8,-,0.12,,Overcast,30,2012-11-19 16:35:00
8:55 AM,46.4,44.6,93,29.49,6.0,Calm,Calm,-,0.15,,Overcast,0,2012-11-19 16:55:00
9:15 AM,46.4,44.6,93,29.48,10.0,Calm,Calm,-,0.02,,Overcast,0,2012-11-19 17:15:00
9:35 AM,46.4,44.6,93,29.46,7.0,Calm,Calm,-,0.05,,Overcast,0,2012-11-19 17:35:00
9:55 AM,48.2,44.6,87,29.45,7.0,Calm,Calm,-,0.10,,Overcast,0,2012-11-19 17:55:00
10:15 AM,48.2,44.6,87,29.43,6.0,Calm,Calm,-,0.03,,Overcast,0,2012-11-19 18:15:00
10:35 AM,50.0,46.4,87,29.42,8.0,Calm,Calm,-,0.06,,Overcast,0,2012-11-19 18:35:00
10:55 AM,46.4,44.6,93,29.41,10.0,NNW,3.5,-,0.10,,Overcast,330,2012-11-19 18:55:00
11:15 AM,46.4,44.6,93,29.41,10.0,Calm,Calm,-,0.05,,Overcast,0,2012-11-19 19:15:00
11:35 AM,48.2,46.4,93,29.40,5.0,Calm,Calm,-,0.11,,Overcast,0,2012-11-19 19:35:00
11:55 AM,48.2,46.4,93,29.40,5.0,Calm,Calm,-,0.20,,Overcast,0,2012-11-19 19:55:00
12:15 PM,48.2,46.4,93,29.39,7.0,Calm,Calm,-,0.13,,Overcast,0,2012-11-19 20:15:00
12:35 PM,50.0,46.4,87,29.38,7.0,SSE,4.6,-,0.19,,Overcast,160,2012-11-19 20:35:00
12:55 PM,50.0,46.4,87,29.38,8.0,SSE,8.1,-,0.25,,Overcast,160,2012-11-19 20:55:00
1:15 PM,51.8,48.2,88,29.37,10.0,SSE,9.2,-,0.07,,Overcast,150,2012-11-19 21:15:00
1:35 PM,51.8,48.2,88,29.38,9.0,South,10.4,-,0.12,,Overcast,170,2012-11-19 21:35:00
1:55 PM,53.6,48.2,82,29.40,9.0,South,25.3,31.1,0.14,,Mostly Cloudy,170,2012-11-19 21:55:00
2:15 PM,53.6,48.2,82,29.40,10.0,SSE,23.0,31.1,N/A,,Scattered Clouds,160,2012-11-19 22:15:00
2:35 PM,53.6,46.4,77,29.40,10.0,SSE,24.2,33.4,N/A,,Partly Cloudy,160,2012-11-19 22:35:00
2:55 PM,53.6,46.4,77,29.43,10.0,SSE,23.0,33.4,N/A,,Mostly Cloudy,150,2012-11-19 22:55:00
3:15 PM,53.6,48.2,82,29.43,10.0,SE,20.7,28.8,N/A,,Overcast,140,2012-11-19 23:15:00
3:35 PM,53.6,46.4,77,29.44,10.0,SSE,24.2,34.5,N/A,,Mostly Cloudy,150,2012-11-19 23:35:00
3:55 PM,53.6,46.4,77,29.43,10.0,SE,21.9,33.4,N/A,,Scattered Clouds,140,2012-11-19 23:55:00
4:15 PM,53.6,46.4,77,29.44,10.0,SE,23.0,27.6,N/A,,Scattered Clouds,140,2012-11-20 00:15:00
4:35 PM,53.6,46.4,77,29.45,10.0,SE,23.0,31.1,N/A,,Mostly Cloudy,140,2012-11-20 00:35:00
4:55 PM,53.6,46.4,77,29.45,10.0,SSE,21.9,29.9,N/A,,Overcast,160,2012-11-20 00:55:00
5:15 PM,53.6,46.4,77,29.46,10.0,SSE,18.4,28.8,N/A,,Overcast,160,2012-11-20 01:15:00
5:35 PM,51.8,48.2,88,29.46,10.0,SE,25.3,29.9,N/A,,Scattered Clouds,140,2012-11-20 01:35:00
5:55 PM,51.8,48.2,88,29.47,10.0,SSE,21.9,33.4,N/A,,Partly Cloudy,150,2012-11-20 01:55:00
6:15 PM,51.8,46.4,82,29.48,10.0,SSE,25.3,28.8,N/A,,Clear,150,2012-11-20 02:15:00
6:35 PM,53.6,46.4,77,29.49,10.0,South,23.0,-,N/A,,Partly Cloudy,170,2012-11-20 02:35:00
7:15 PM,51.8,44.6,76,29.53,10.0,South,18.4,-,N/A,,Clear,180,2012-11-20 03:15:00
7:35 PM,51.8,44.6,76,29.54,10.0,South,16.1,23.0,N/A,,Clear,180,2012-11-20 03:35:00
7:55 PM,51.8,44.6,76,29.57,10.0,South,12.7,-,N/A,,Partly Cloudy,180,2012-11-20 03:55:00
8:15 PM,51.8,46.4,82,29.59,10.0,South,8.1,-,N/A,,Mostly Cloudy,180,2012-11-20 04:15:00
8:35 PM,51.8,46.4,82,29.60,10.0,South,8.1,-,N/A,,Overcast,180,2012-11-20 04:35:00
8:55 PM,51.8,46.4,82,29.61,10.0,SSE,11.5,-,N/A,,Overcast,160,2012-11-20 04:55:00
9:15 PM,51.8,44.6,76,29.62,10.0,SSE,9.2,-,N/A,,Overcast,160,2012-11-20 05:15:00
9:35 PM,51.8,44.6,76,29.63,10.0,South,11.5,18.4,N/A,,Overcast,170,2012-11-20 05:35:00
9:55 PM,51.8,46.4,82,29.64,10.0,SSE,13.8,18.4,N/A,,Overcast,150,2012-11-20 05:55:00
10:15 PM,50.0,44.6,82,29.65,10.0,SSE,9.2,-,N/A,,Overcast,150,2012-11-20 06:15:00
10:35 PM,50.0,44.6,82,29.65,10.0,SSE,9.2,-,N/A,,Overcast,150,2012-11-20 06:35:00
10:55 PM,50.0,44.6,82,29.66,10.0,SSE,11.5,18.4,N/A,,Mostly Cloudy,150,2012-11-20 06:55:00
11:15 PM,48.2,44.6,87,29.68,10.0,South,10.4,-,N/A,,Partly Cloudy,170,2012-11-20 07:15:00
11:35 PM,50.0,44.6,82,29.69,10.0,SSE,12.7,19.6,N/A,,Mostly Cloudy,160,2012-11-20 07:35:00
11:55 PM,50.0,44.6,82,29.68,10.0,SSE,10.4,-,N/A,,Mostly Cloudy,160,2012-11-20 07:55:00